Weather History for Montrose, CO

Change the Weather History Date:

Wednesday, July 17, 2013

  Actual Average Record
Temperature  
Mean Temperature 75 °F 74 °F  
Max Temperature 88 °F 90 °F 100 °F (2010)
Min Temperature 62 °F 58 °F 54 °F (1999)
Degree Days  
Heating Degree Days 0 0  
Month to date heating degree days 0 0  
Since 1 June heating degree days 9 39  
Since 1 July heating degree days 0 0  
Cooling Degree Days 10 9  
Month to date cooling degree days 209 145  
Year to date cooling degree days 473 297  
Since 1 June cooling degree days 448 280  
Growing Degree Days 25 (Base 50)    
Moisture  
Dew Point 56 °F    
Average Humidity 60    
Maximum Humidity 90    
Minimum Humidity 29    
Precipitation  
Precipitation 0.18 in 0.03 in 0.18 in (2013)
Month to date precipitation 1.08 0.43  
Year to date precipitation 3.73 5.50  
Sea Level Pressure  
Sea Level Pressure 30.04 in    
Wind  
Wind Speed 5 mph (ENE)    
Max Wind Speed 30 mph    
Max Gust Speed 41 mph    
Visibility 10 miles    
Events Rain , Thunderstorm    
T = Trace of Precipitation, MM = Missing Value Source: NWS Daily Summary

Daily Weather History Graph

Daily Weather History Graph

Search for Another Location

Airport:

Trip Planner

Search our weather history database for the weather conditions in past years. The results will help you decide how hot, cold, wet, or windy it might be!

Date:

Astronomy

Jul. 17, 2013 Rise Set
Actual Time 6:01 AM MDT 8:33 PM MDT
Civil Twilight 5:30 AM MDT 9:04 PM MDT
Nautical Twilight 4:52 AM MDT 9:42 PM MDT
Astronomical Twilight 4:09 AM MDT 10:24 PM MDT
Moon 3:27 PM MDT (7/17) 1:09 AM MDT (7/17)
Length of Visible Light 15h 33m
Length of Day
14h 32m
Waxing Gibbous, 68% of the Moon is Illuminated
Jul 17
Waxing Gibbous
Jul 22
Full
Jul 29
Last Quarter
Aug 6
New
Aug 14
First Quarter

Hourly Weather History & Observations

Time (MDT) Temp. Heat Index Dew Point Humidity Pressure Visibility Wind Dir Wind Speed Gust Speed Precip Events Conditions
12:53 AM 66.0 °F - 57.9 °F 75% 30.00 in 10.0 mi SE 8.1 mph - N/A   Partly Cloudy
1:53 AM 64.9 °F - 57.9 °F 78% 30.02 in 10.0 mi ESE 6.9 mph - N/A   Clear
2:53 AM 64.9 °F - 57.9 °F 78% 30.02 in 10.0 mi South 4.6 mph - N/A   Scattered Clouds
3:53 AM 64.0 °F - 57.9 °F 80% 30.02 in 10.0 mi Calm Calm - N/A   Partly Cloudy
4:53 AM 64.0 °F - 57.0 °F 78% 30.04 in 10.0 mi Calm Calm - N/A   Overcast
5:53 AM 63.0 °F - 59.0 °F 87% 30.04 in 10.0 mi SSE 3.5 mph - N/A   Overcast
6:53 AM 64.9 °F - 59.0 °F 81% 30.05 in 10.0 mi SE 5.8 mph - N/A   Overcast
7:53 AM 66.9 °F - 59.0 °F 76% 30.09 in 10.0 mi SE 3.5 mph - N/A   Overcast
8:53 AM 72.0 °F - 59.0 °F 64% 30.10 in 10.0 mi Calm Calm - N/A   Clear
9:53 AM 73.9 °F - 57.9 °F 57% 30.09 in 10.0 mi Calm Calm - N/A   Clear
10:53 AM 77.0 °F - 55.0 °F 47% 30.08 in 10.0 mi NNW 3.5 mph - N/A   Clear
11:53 AM 81.0 °F 80.4 °F 53.1 °F 38% 30.06 in 10.0 mi NNW 4.6 mph - N/A   Clear
12:53 PM 82.0 °F 81.3 °F 54.0 °F 38% 30.04 in 10.0 mi NW 3.5 mph - N/A   Clear
1:53 PM 84.9 °F - 52.0 °F 32% 30.00 in 10.0 mi WNW 9.2 mph - N/A   Clear
2:53 PM 86.0 °F - 52.0 °F 31% 29.97 in 10.0 mi Variable 5.8 mph - N/A   Clear
3:53 PM 87.1 °F - 51.1 °F 29% 29.95 in 10.0 mi North 6.9 mph - N/A   Clear
4:53 PM 87.1 °F - 52.0 °F 30% 29.93 in 10.0 mi NNW 6.9 mph - N/A   Clear
5:53 PM 86.0 °F 84.0 °F 53.1 °F 32% 29.92 in 10.0 mi NNW 9.2 mph - N/A   Clear
6:53 PM 84.0 °F 82.6 °F 54.0 °F 35% 29.93 in 10.0 mi Calm Calm - N/A   Clear
7:53 PM 80.1 °F 80.2 °F 55.9 °F 43% 29.96 in 10.0 mi NNW 9.2 mph - N/A   Clear
8:53 PM 78.1 °F - 55.9 °F 46% 29.96 in 10.0 mi NE 3.5 mph - N/A   Clear
9:32 PM 75.2 °F - 55.4 °F 50% 30.24 in 10.0 mi ESE 10.4 mph - N/A Thunderstorm Partly Cloudy
9:53 PM 75.9 °F - 55.9 °F 50% 30.00 in 10.0 mi SSE 16.1 mph 23.0 mph N/A Thunderstorm Thunderstorm
10:15 PM 69.8 °F - 50.0 °F 49% 30.30 in 10.0 mi East 24.2 mph 39.1 mph N/A Thunderstorm Thunderstorm
10:53 PM 64.0 °F - 55.9 °F 75% 30.09 in 10.0 mi East 15.0 mph - 0.02 in Rain , Thunderstorm Light Thunderstorms and Rain
11:53 PM 63.0 °F - 59.0 °F 87% 30.09 in 4.0 mi SW 3.5 mph - 0.08 in Rain , Thunderstorm Thunderstorms and Rain